Wetbulb
34.90 31.48 28.73 29.33 30.82 29.76 27.92 25.59 24.63 28.25 33.25 31.48 30.24 30.05 32.21 34.92 34.83 34.23 35.14 36.51 37.90 39.66 42.06 43.68 44.97 46.43 48.43 53.49 57.65 59.27 61.68 63.33 62.14 61.54 61.22 61.13 60.46 60.80 60.72 60.22 58.94 58.97 59.54 59.24
30.73 29.22 33.34 34.16 33.07 30.69 29.43 27.02 25.66 29.39 32.93 30.96 29.33 29.35 31.76 33.76 33.88 34.46 34.21 34.56 35.76 37.63 39.29 40.95 42.50 44.10 45.02 45.93 47.86 52.21 59.56 61.87 61.66 61.73 62.17 62.27 61.48 61.46 61.59 60.79 59.23 59.22 59.20 59.13
28.72 32.40 35.71 33.46 31.79 30.30 29.43 27.32 26.49 27.31 30.61 29.82 27.26 25.43 28.20 31.64 34.48 35.37 35.39 35.13 35.43 35.68 36.68 38.20 39.73 41.81 42.32 43.02 44.25 46.70 49.80 59.33 60.97 61.30 62.24 61.42 61.69 60.33 59.94 59.63 58.87 58.52 58.95 59.39
29.83 35.13 33.30 31.73 31.17 31.70 27.89 31.57 30.62 29.79 26.37 22.17 26.51 17.13 25.38 29.88 31.03 33.11 33.34 33.28 33.62 34.62 36.24 37.26 37.99 39.20 40.50 41.89 43.31 44.57 46.59 49.84 59.83 60.82 60.59 60.70 59.81 58.13 58.98 59.83 59.84 59.17 58.25 58.58
29.00 31.31 31.51 30.55 31.14 33.10 29.80 32.91 30.39 29.91 26.83 22.89 24.63 17.40 21.39 28.68 28.20 30.61 32.13 32.86 33.52 34.63 35.12 35.44 36.63 38.52 39.44 40.80 41.44 42.26 44.08 45.80 49.84 59.00 60.28 60.10 59.46 59.85 59.90 59.99 59.19 59.16 57.97 58.22
29.31 33.57 33.12 32.25 33.92 33.37 34.07 29.24 26.51 25.67 23.26 10.62 23.38 19.47 19.55 27.41 29.71 30.09 32.02 32.32 34.01 33.88 34.31 34.77 35.96 37.46 38.25 39.51 39.83 40.63 41.93 43.08 46.68 49.66 56.37 59.07 58.39 57.62 57.69 58.34 58.00 57.52 57.72 57.83
25.53 28.76 32.48 34.36 30.58 32.33 30.13 20.54 8.31 10.43 9.45 10.27 23.26 20.63 24.12 28.92 29.80 30.53 30.55 31.91 32.65 33.10 33.81 33.96 34.29 35.32 35.60 36.10 38.07 39.32 40.50 41.42 44.45 47.00 49.29 54.64 58.36 57.80 57.04 57.20 57.61 56.97 57.28 57.71
12.83 16.69 28.80 33.56 31.55 31.17 28.59 27.31 13.18 7.62 12.07 13.93 23.98 19.86 25.14 30.94 31.92 31.88 31.83 32.21 33.03 33.63 34.38 34.97 34.97 34.83 34.64 35.15 36.26 37.64 39.55 40.86 43.43 45.09 47.05 49.87 55.32 58.91 58.12 58.00 58.17 58.10 58.06 58.30
21.64 15.25 28.48 32.95 32.69 33.82 25.44 20.74 31.94 18.49 18.63 17.07 19.00 23.80 30.15 30.07 29.49 31.18 31.12 32.37 32.82 33.41 34.58 34.99 34.95 35.18 34.95 35.02 35.90 38.09 39.65 40.52 42.06 43.27 45.94 48.05 50.30 58.49 59.09 58.60 57.99 58.20 58.09 58.30
24.44 19.29 23.28 29.67 31.24 30.75 29.67 32.65 17.67 16.84 8.25 8.42 15.33 18.00 21.36 26.93 28.33 30.20 30.49 31.52 32.92 34.00 34.29 34.54 35.02 34.86 35.43 35.49 36.09 37.66 38.78 39.01 40.33 42.79 45.23 47.87 50.00 53.90 59.58 59.71 59.14 58.69 58.80 59.00
31.63 26.04 19.63 24.81 28.15 28.06 28.43 21.21 27.21 27.89 24.56 14.88 13.12 15.77 28.01 28.33 29.81 29.79 30.73 31.82 32.45 33.16 33.47 34.01 34.34 34.53 34.94 34.99 35.13 35.72 36.93 37.56 39.03 41.14 44.01 47.42 50.82 54.35 58.40 59.28 59.30 59.43 59.19 58.91
32.57 27.32 20.65 16.48 25.21 32.46 32.10 27.51 27.82 16.11 13.00 19.08 19.12 17.86 31.43 31.24 31.32 31.70 31.05 32.17 32.19 31.94 32.30 32.65 33.83 33.49 33.32 33.54 33.83 34.07 34.89 35.97 37.94 40.11 42.62 43.96 48.83 52.37 52.56 53.48 52.03 53.51 53.71 55.86
30.38 18.55 11.95 15.66 21.79 29.47 28.75 30.80 31.26 28.22 27.20 14.56 15.84 15.67 30.69 31.14 31.55 31.66 31.24 32.30 29.91 30.42 30.79 30.71 32.18 31.95 31.83 32.57 32.77 32.92 33.49 34.30 36.34 38.80 40.02 40.63 42.18 45.31 45.81 46.43 47.22 47.96 48.55 48.25
31.76 19.86 15.11 16.14 19.97 24.11 24.02 26.01 31.06 28.95 15.72 15.37 18.19 15.01 18.86 20.33 28.92 26.59 26.61 27.83 26.17 27.19 28.85 28.87 30.54 30.60 31.07 31.87 32.00 32.14 32.41 33.70 34.09 36.65 37.14 38.02 39.59 40.66 41.47 42.06 42.78 42.96 43.45 44.04
28.80 13.69 17.77 21.40 23.90 24.94 26.35 26.64 27.44 26.17 25.27 20.71 15.83 19.43 19.56 23.27 25.68 24.41 31.50 27.98 24.72 26.88 26.00 26.76 29.91 30.20 30.56 30.33 30.89 31.74 31.96 32.48 33.27 33.98 35.09 35.70 37.79 39.68 39.53 39.55 40.33 39.65 39.81 40.09
28.26 15.32 16.20 11.83 21.31 28.21 25.86 27.99 28.92 27.51 27.68 27.77 26.37 25.83 27.17 28.92 28.35 31.33 27.32 22.71 23.97 24.71 24.44 24.10 28.60 29.72 29.40 29.66 30.02 30.89 31.04 31.78 32.62 32.08 31.93 34.79 35.40 36.57 36.78 38.72 36.49 36.54 36.80 36.61
24.27 17.53 8.86 5.58 13.05 11.35 15.25 21.17 26.40 28.38 25.45 24.29 20.44 25.30 28.09 27.26 29.80 29.39 28.55 27.14 25.31 27.87 28.35 25.48 25.74 24.61 24.40 28.02 29.36 29.35 29.91 31.36 31.12 30.91 31.12 31.92 33.40 32.63 33.67 33.85 34.61 33.10 33.27 33.47
23.78 20.68 18.80 13.11 11.21 6.52 22.32 26.44 27.45 25.74 25.11 27.74 27.34 26.81 29.68 29.90 30.56 31.50 31.04 29.42 29.41 28.74 28.53 27.86 26.77 25.48 25.04 26.03 26.74 28.67 28.99 29.47 29.80 29.51 29.92 30.57 31.39 31.21 31.39 30.67 30.48 29.90 30.84 30.44
26.67 23.48 6.83 13.69 14.98 17.11 20.71 27.26 25.94 26.77 25.48 29.96 29.84 30.03 30.45 30.86 32.40 31.37 33.90 31.12 30.14 28.41 27.73 26.90 25.92 25.15 24.38 24.01 25.45 27.95 27.65 28.22 27.96 27.92 28.77 29.59 30.72 30.26 29.90 28.84 28.69 28.54 28.55 28.44
27.55 24.93 14.96 5.21 10.83 2.70 21.63 29.46 30.55 28.96 22.12 30.05 31.98 30.29 29.33 30.44 23.30 24.14 29.02 30.24 29.09 28.20 28.06 27.23 26.36 25.26 23.41 23.18 25.41 26.02 25.95 25.78 25.79 27.09 27.97 28.66 29.53 29.41 28.57 27.91 28.18 28.20 28.08 28.00
21.20 21.67 11.98 13.79 13.67 14.25 24.20 29.29 30.18 19.06 25.75 30.03 32.07 30.59 29.47 28.60 28.97 27.45 29.26 28.19 28.80 27.95 27.95 25.67 23.92 22.79 20.57 22.01 25.05 24.72 23.80 23.05 23.48 25.52 27.28 27.85 28.44 29.28 28.99 28.05 27.76 27.49 26.99 26.39
16.06 14.65 7.39 12.52 10.72 8.55 27.86 29.39 26.20 30.18 31.09 30.51 30.96 30.57 31.52 30.50 28.66 28.47 28.42 28.18 27.28 26.60 26.96 26.19 24.15 22.28 19.24 20.78 23.04 22.74 21.46 20.84 21.27 22.94 24.45 25.79 26.36 27.66 27.81 26.08 26.19 26.08 25.42 24.70
13.92 18.87 14.37 16.64 17.45 26.49 31.42 30.46 32.33 31.31 31.93 30.92 31.09 31.45 32.39 30.73 28.38 28.24 27.76 27.16 27.37 26.11 25.60 24.14 20.61 18.73 16.69 14.37 16.93 17.81 16.42 17.10 17.90 21.21 26.26 25.75 23.92 25.61 26.36 24.77 25.78 25.59 24.36 24.30
18.33 21.82 18.21 17.66 23.07 24.99 27.22 32.53 31.71 31.15 32.02 31.67 31.40 31.58 31.64 30.80 29.24 28.03 27.75 27.05 26.29 23.38 21.38 18.10 18.89 17.01 14.22 12.07 14.57 11.32 13.11 12.97 13.14 24.12 25.29 26.40 25.72 20.86 22.28 25.44 25.23 24.78 24.47 23.35
19.56 21.43 15.71 18.06 22.52 20.82 26.14 26.71 31.02 33.35 32.00 31.83 31.08 31.79 32.35 31.05 28.65 28.08 27.91 26.96 25.69 22.79 17.93 19.16 23.86 20.99 16.83 10.45 8.25 4.62 8.60 8.41 21.17 24.65 24.82 25.71 25.81 25.25 18.98 20.61 21.67 24.02 25.94 26.13
22.84 19.94 20.68 22.03 25.85 27.56 28.16 26.13 27.80 29.42 32.07 33.04 31.28 29.65 29.94 30.36 30.23 26.79 26.34 25.77 24.12 21.50 15.85 19.28 19.23 21.81 16.48 9.61 8.26 4.79 1.96 9.15 22.45 23.64 24.41 24.75 24.63 24.05 20.39 16.43 15.66 24.08 26.64 26.34
MSLP
1022.75 1023.25 1023.89 1023.86 1023.91 1023.85 1023.85 1023.99 1023.75 1023.03 1022.46 1022.33 1022.61 1022.59 1022.71 1022.70 1021.93 1022.17 1022.28 1022.02 1021.70 1021.30 1021.08 1020.32 1019.46 1018.83 1018.30 1017.78 1017.41 1017.32 1016.67 1016.70 1017.23 1017.28 1017.57 1017.88 1017.66 1018.22 1018.86 1019.32 1019.93 1020.50 1020.97 1021.45
1023.87 1024.31 1024.39 1023.92 1023.89 1023.94 1024.02 1024.08 1024.13 1023.49 1022.93 1022.83 1023.19 1023.23 1023.33 1023.37 1023.77 1023.86 1023.84 1023.49 1023.08 1022.24 1021.36 1021.03 1020.59 1019.97 1019.68 1019.41 1018.82 1018.00 1017.36 1017.18 1016.66 1016.70 1016.95 1017.15 1016.82 1017.92 1018.15 1018.53 1019.03 1019.59 1020.30 1021.01
1025.02 1025.02 1024.27 1024.05 1024.30 1024.33 1024.49 1024.47 1024.55 1024.57 1023.72 1023.48 1023.56 1023.67 1023.73 1023.85 1024.14 1024.38 1024.51 1024.72 1024.26 1023.64 1022.85 1022.10 1021.57 1021.04 1020.73 1020.31 1019.77 1019.09 1018.30 1017.32 1016.94 1016.57 1016.61 1017.01 1017.24 1017.41 1016.74 1018.60 1018.99 1019.30 1019.91 1020.41
1025.71 1025.30 1024.82 1024.47 1024.63 1024.77 1024.61 1024.54 1024.73 1024.75 1024.75 1024.55 1024.40 1024.75 1024.41 1024.53 1024.49 1024.69 1024.95 1024.95 1024.84 1024.27 1023.71 1023.20 1022.44 1021.77 1021.41 1021.06 1020.60 1019.90 1019.06 1018.17 1017.08 1016.77 1016.79 1016.73 1016.90 1017.51 1016.50 1017.24 1018.13 1019.00 1019.30 1019.66
1026.29 1025.81 1025.35 1025.03 1025.22 1025.13 1025.08 1024.91 1025.03 1025.13 1025.39 1025.55 1025.40 1025.49 1025.30 1025.26 1025.15 1025.24 1025.50 1025.57 1025.40 1025.00 1024.40 1023.80 1023.31 1022.68 1022.11 1021.53 1021.03 1020.60 1019.75 1018.82 1017.86 1016.94 1016.51 1016.50 1016.68 1016.80 1017.16 1017.44 1017.51 1018.20 1018.34 1018.96
1026.83 1026.06 1025.96 1025.52 1025.21 1025.24 1025.40 1025.34 1025.70 1026.13 1026.31 1026.62 1026.47 1026.39 1026.23 1026.33 1026.58 1026.28 1026.21 1026.05 1025.67 1025.24 1024.80 1024.39 1023.91 1023.30 1022.64 1021.97 1021.39 1020.85 1020.13 1019.49 1018.55 1017.72 1016.80 1016.21 1016.25 1016.58 1016.96 1017.19 1017.58 1018.06 1017.68 1018.11
1028.13 1026.81 1026.25 1025.89 1025.64 1025.53 1025.95 1026.51 1027.07 1027.67 1027.66 1027.78 1026.86 1026.62 1026.55 1026.63 1026.80 1026.92 1026.53 1026.11 1025.99 1025.65 1025.06 1024.47 1023.97 1023.50 1023.07 1022.48 1021.84 1021.25 1020.50 1019.66 1019.01 1018.19 1017.37 1016.66 1016.05 1016.18 1016.42 1016.62 1016.94 1017.35 1017.72 1018.03
1030.16 1028.08 1027.41 1026.82 1026.82 1026.79 1026.98 1027.37 1028.01 1028.74 1028.98 1028.21 1027.11 1026.99 1026.53 1026.56 1026.81 1026.77 1026.69 1026.45 1026.16 1025.79 1025.45 1024.94 1024.46 1024.04 1023.59 1022.99 1022.33 1021.57 1020.69 1019.88 1019.15 1018.51 1017.75 1017.00 1016.28 1015.83 1015.90 1016.08 1016.20 1016.58 1016.86 1017.00
1030.51 1029.29 1028.19 1027.46 1027.21 1027.24 1027.32 1027.70 1028.03 1028.63 1029.41 1028.95 1027.72 1027.18 1026.89 1026.62 1026.71 1026.49 1026.36 1026.12 1025.99 1025.87 1025.56 1025.30 1024.90 1024.28 1023.73 1023.20 1022.58 1021.77 1020.90 1020.06 1019.40 1018.65 1017.86 1017.15 1016.47 1015.55 1015.33 1015.47 1015.78 1016.02 1016.22 1016.55
1030.64 1030.27 1029.18 1028.08 1027.49 1027.43 1027.57 1027.89 1028.01 1028.71 1029.49 1029.13 1028.12 1027.57 1026.94 1026.84 1026.87 1026.85 1026.68 1026.59 1026.48 1026.34 1026.10 1025.72 1025.23 1024.56 1024.00 1023.39 1022.75 1021.94 1021.16 1020.39 1019.52 1018.74 1017.89 1017.02 1016.36 1015.69 1014.93 1014.96 1015.16 1015.45 1015.79 1016.19
1030.16 1030.71 1030.11 1029.29 1028.66 1028.17 1028.01 1027.93 1028.06 1028.52 1029.09 1029.59 1029.36 1027.82 1027.12 1027.26 1027.36 1027.30 1027.27 1027.34 1027.24 1026.90 1026.55 1026.11 1025.64 1025.07 1024.44 1023.71 1022.94 1022.18 1021.36 1020.55 1019.65 1018.73 1017.84 1016.84 1015.68 1015.14 1014.64 1014.57 1014.81 1015.15 1015.50 1015.83
1030.06 1030.54 1031.07 1030.29 1029.31 1028.58 1028.42 1028.41 1028.57 1029.13 1029.64 1029.77 1029.82 1028.13 1027.45 1027.59 1027.70 1027.69 1027.63 1027.69 1027.73 1027.48 1027.02 1026.54 1025.91 1025.28 1024.67 1024.07 1023.30 1022.49 1021.74 1020.98 1020.09 1019.05 1017.98 1017.13 1015.87 1014.95 1014.86 1014.98 1015.22 1015.39 1015.82 1016.09
1029.95 1030.84 1031.48 1030.54 1030.13 1029.14 1028.82 1028.52 1028.56 1029.10 1029.55 1029.92 1030.18 1028.34 1027.80 1027.84 1027.90 1027.84 1027.90 1027.89 1027.88 1027.55 1027.10 1026.81 1026.38 1025.85 1025.20 1024.48 1023.76 1023.00 1022.32 1021.63 1020.68 1019.57 1018.65 1018.01 1017.31 1016.45 1016.15 1016.18 1016.27 1016.19 1016.62 1016.95
1029.75 1031.35 1031.99 1031.73 1030.45 1029.83 1029.43 1028.88 1028.57 1028.95 1029.56 1029.68 1029.23 1028.54 1028.19 1028.17 1028.06 1027.94 1028.13 1028.20 1028.29 1027.94 1027.62 1027.39 1026.75 1026.34 1025.66 1025.09 1024.39 1023.61 1022.79 1022.08 1021.35 1020.28 1019.72 1019.07 1018.74 1018.22 1017.67 1017.32 1017.31 1017.37 1017.58 1017.68
1030.26 1031.82 1032.57 1031.56 1030.76 1030.20 1029.22 1028.66 1028.33 1028.35 1028.59 1028.89 1028.42 1028.70 1028.08 1028.04 1027.89 1027.83 1028.19 1028.34 1028.36 1028.17 1027.87 1027.62 1027.36 1026.92 1026.36 1025.77 1024.86 1024.12 1023.51 1023.19 1022.16 1021.32 1021.00 1020.20 1019.96 1019.69 1018.89 1018.45 1018.56 1018.52 1018.49 1018.71
1030.78 1031.93 1032.71 1032.09 1031.05 1030.07 1029.08 1028.14 1027.50 1027.61 1027.83 1027.82 1027.74 1027.30 1026.81 1026.92 1027.19 1027.58 1027.87 1028.04 1028.33 1028.46 1028.35 1028.17 1027.77 1027.49 1027.10 1026.60 1026.01 1025.18 1024.43 1023.93 1023.15 1022.45 1022.45 1021.74 1021.39 1020.90 1019.82 1020.00 1020.13 1019.59 1019.69 1020.00
1031.35 1032.50 1033.43 1032.85 1031.76 1030.40 1028.85 1026.66 1026.42 1026.24 1026.28 1026.53 1026.91 1026.41 1026.47 1026.57 1026.56 1026.82 1027.05 1027.50 1027.90 1028.24 1028.29 1028.22 1027.98 1028.04 1027.74 1027.14 1026.71 1026.15 1025.37 1024.83 1024.18 1023.58 1023.19 1023.21 1022.71 1021.93 1021.45 1021.15 1020.96 1021.32 1021.27 1021.42
1031.71 1032.49 1033.51 1033.45 1032.09 1030.32 1027.04 1025.93 1025.44 1025.38 1025.16 1025.16 1025.36 1025.50 1025.54 1025.70 1026.01 1026.20 1026.31 1026.72 1027.11 1027.64 1028.02 1028.24 1028.39 1028.27 1027.97 1027.51 1027.01 1026.60 1026.03 1025.63 1025.08 1024.98 1024.96 1024.55 1023.97 1023.59 1022.62 1022.55 1022.42 1022.93 1022.69 1022.29
1031.85 1032.36 1033.84 1033.93 1033.01 1029.52 1026.08 1025.36 1025.13 1024.83 1023.49 1022.98 1023.91 1024.49 1024.92 1025.42 1025.81 1025.46 1025.26 1026.00 1026.53 1027.28 1027.92 1028.34 1028.41 1028.45 1028.28 1027.95 1027.42 1026.84 1026.43 1026.38 1026.02 1025.81 1025.46 1024.83 1024.43 1024.06 1024.06 1023.63 1023.57 1023.91 1023.75 1023.62
1032.31 1032.47 1033.42 1033.94 1033.00 1029.95 1025.60 1024.47 1024.30 1024.11 1022.94 1021.62 1022.52 1023.37 1024.39 1025.37 1026.08 1025.62 1025.27 1025.69 1026.39 1027.06 1027.68 1028.20 1028.42 1028.54 1028.48 1028.23 1027.77 1027.24 1027.18 1027.20 1027.11 1026.89 1026.51 1026.09 1025.69 1025.05 1024.97 1024.86 1024.52 1024.72 1024.77 1024.45
1032.96 1033.05 1033.46 1033.80 1032.51 1028.32 1024.79 1024.37 1024.32 1023.88 1021.84 1021.05 1021.67 1022.80 1024.05 1024.86 1024.75 1024.95 1025.30 1025.80 1026.26 1026.97 1027.48 1027.97 1028.34 1028.64 1028.76 1028.59 1028.18 1028.13 1028.08 1028.00 1028.12 1027.73 1027.26 1026.83 1026.38 1026.08 1025.83 1025.61 1025.54 1025.66 1025.46 1024.95
1031.72 1031.97 1032.70 1033.21 1031.36 1026.81 1024.05 1024.45 1023.90 1021.48 1020.79 1020.95 1021.57 1022.17 1023.08 1023.69 1024.40 1024.93 1025.42 1025.98 1026.43 1026.93 1027.53 1027.96 1028.41 1028.83 1029.01 1028.98 1028.81 1028.96 1029.11 1029.06 1028.63 1028.29 1027.86 1027.43 1027.05 1026.76 1026.54 1026.48 1026.54 1026.31 1025.94 1025.64
1030.32 1028.53 1028.73 1028.75 1025.77 1023.26 1022.71 1021.54 1021.08 1021.12 1021.26 1021.22 1021.43 1021.75 1022.39 1023.50 1024.23 1024.70 1025.22 1025.84 1026.19 1026.79 1027.44 1027.99 1028.52 1028.99 1029.24 1029.39 1029.46 1029.58 1029.70 1029.42 1029.10 1028.79 1028.43 1028.21 1028.06 1027.86 1027.65 1027.52 1027.24 1026.91 1026.70 1026.37
1028.18 1027.47 1027.67 1026.97 1022.85 1022.56 1022.01 1021.18 1021.07 1021.00 1021.06 1020.95 1021.26 1021.50 1022.05 1022.78 1023.51 1024.24 1024.93 1025.51 1026.15 1026.89 1027.58 1028.11 1028.63 1029.15 1029.40 1029.66 1029.69 1029.94 1029.80 1029.53 1029.28 1029.03 1028.87 1028.75 1028.67 1028.69 1028.42 1028.07 1027.84 1027.50 1027.07 1026.95
1026.31 1026.59 1026.09 1025.14 1022.59 1022.31 1021.03 1020.53 1019.87 1020.17 1020.79 1021.01 1021.14 1021.40 1021.73 1022.43 1023.16 1023.76 1024.54 1025.17 1025.70 1026.43 1027.11 1027.47 1027.87 1028.37 1028.70 1029.16 1029.58 1029.65 1029.69 1029.45 1029.10 1028.79 1028.68 1028.51 1028.49 1028.52 1028.62 1028.35 1027.91 1027.57 1027.52 1027.46
1024.09 1023.46 1023.45 1021.55 1020.18 1019.84 1019.23 1018.57 1018.89 1019.98 1019.93 1020.07 1020.86 1021.35 1021.61 1022.10 1022.69 1023.41 1024.20 1024.61 1025.32 1026.03 1026.80 1027.42 1027.63 1028.03 1028.17 1028.88 1029.49 1029.51 1029.52 1029.31 1028.91 1028.66 1028.57 1028.54 1028.56 1028.68 1028.79 1028.83 1028.55 1028.19 1027.86 1027.87
Wind_Speed
6 9 6 5 4 2 2 1 3 4 2 6 7 8 10 13 19 17 15 15 15 14 12 14 16 16 18 15 8 6 8 13 9 10 9 9 11 10 9 8 12 12 11 12
7 7 7 4 4 3 3 2 5 5 4 3 6 5 7 10 10 12 13 14 15 17 18 17 17 16 16 14 14 15 8 7 12 10 7 7 7 8 9 8 11 13 13 12
5 3 6 4 6 6 3 3 3 3 6 3 3 3 4 3 7 9 12 9 11 14 17 17 17 15 14 15 15 14 14 8 8 11 6 3 4 2 4 5 7 9 12 13
2 5 5 6 3 4 2 1 3 5 4 2 3 2 3 5 5 13 14 14 14 15 14 14 17 17 15 13 12 13 15 14 6 8 8 11 9 5 5 9 7 8 11 13
4 6 6 5 3 3 5 6 3 2 2 3 6 5 2 6 9 17 15 14 13 13 14 15 16 16 16 13 11 11 13 14 13 9 10 9 10 6 3 4 8 10 11 12
2 3 2 2 4 1 6 2 5 4 2 5 4 3 4 5 7 10 11 12 15 15 14 14 14 15 14 14 12 12 12 12 13 12 10 9 10 8 5 7 8 8 6 7
8 4 5 4 4 5 8 6 4 6 7 5 2 3 2 2 2 5 12 14 13 13 16 17 17 18 15 16 15 13 13 13 11 12 11 11 11 9 10 9 8 8 7 7
3 7 6 8 3 4 4 3 4 3 3 5 4 2 3 2 3 6 6 8 11 16 16 16 18 17 15 15 15 13 14 14 12 11 11 10 12 7 7 8 8 7 8 9
4 6 5 3 2 2 7 5 3 4 3 2 3 2 3 3 4 11 13 14 17 18 16 16 17 16 16 16 14 14 13 15 12 12 10 10 10 10 8 10 5 5 5 5
2 6 2 5 2 2 3 4 4 4 4 4 4 4 3 8 12 11 13 15 15 15 14 14 14 15 14 13 12 13 12 13 12 12 10 10 11 12 10 7 9 8 8 7
1 2 7 3 4 2 5 5 3 1 1 1 4 5 2 5 6 9 10 10 12 13 13 12 12 13 13 13 12 12 12 13 13 13 11 12 11 11 11 8 7 6 6 6
2 1 5 8 5 1 2 2 1 4 6 1 2 6 2 4 4 5 8 10 9 8 9 10 12 13 13 13 13 13 13 13 13 12 11 12 11 7 7 8 8 8 7 6
4 2 4 8 6 3 1 2 1 2 1 4 2 7 3 2 4 5 8 9 7 9 11 11 12 11 12 13 13 13 13 14 13 12 12 13 12 9 10 10 9 10 10 10
5 2 6 6 6 2 3 3 4 2 2 3 7 6 4 5 6 5 5 7 7 7 8 8 11 13 11 12 11 13 14 14 15 13 13 12 12 11 9 10 11 11 10 11
4 3 2 7 8 3 7 9 9 11 8 6 5 5 6 6 8 6 6 6 7 7 9 10 11 11 12 12 12 13 14 13 14 15 13 14 12 9 10 12 11 11 12 12
2 3 1 6 5 4 11 13 11 12 13 10 8 16 6 6 2 7 7 4 6 6 6 7 8 11 10 11 11 11 11 11 11 14 15 13 12 10 12 11 10 12 12 12
3 3 4 7 3 6 7 10 14 8 4 7 6 8 4 4 8 8 6 4 6 5 5 6 6 6 7 9 9 10 11 11 11 12 12 12 10 12 11 11 12 12 11 10
4 4 1 5 6 4 7 2 3 7 6 12 2 5 7 6 4 5 5 5 4 2 3 4 4 5 6 7 7 6 8 10 11 11 9 9 10 9 12 12 12 10 8 11
0 3 2 0 3 9 5 5 7 8 9 15 15 9 7 3 4 8 9 7 5 5 4 2 1 2 4 6 7 7 9 9 10 11 11 12 11 11 10 11 11 8 8 8
4 4 5 2 1 5 6 2 3 2 6 8 15 11 8 7 2 5 4 7 6 6 4 4 2 2 4 6 5 6 8 9 11 10 9 9 8 10 10 9 9 6 5 7
5 4 4 3 5 12 8 3 4 5 7 6 12 8 10 7 6 3 6 4 5 5 5 4 3 4 2 4 4 6 6 8 7 7 7 8 8 8 8 8 8 7 6 7
9 10 5 4 3 10 8 6 7 5 2 3 7 8 12 6 8 6 7 7 7 7 5 4 3 3 3 4 4 5 6 5 5 5 6 8 9 7 8 8 7 7 7 8
5 9 10 13 11 4 12 4 6 0 3 4 6 7 10 9 8 8 8 8 8 8 6 4 4 3 1 2 3 2 3 4 4 5 7 6 7 7 5 5 8 7 7 8
6 5 3 3 6 15 10 12 8 4 6 3 5 7 10 8 10 9 7 7 7 6 6 4 5 4 3 1 2 1 2 2 4 5 5 4 4 4 5 4 4 6 7 8
6 8 6 8 10 5 13 13 16 12 8 7 5 8 12 9 8 9 8 8 8 8 6 7 9 6 7 5 4 3 2 1 4 4 2 3 3 4 3 3 3 4 6 7
8 10 8 11 10 6 6 3 7 13 15 15 10 7 8 9 10 8 8 7 8 9 5 6 6 6 6 4 4 4 2 3 3 3 2 2 2 2 2 2 4 8 6 7
Wind_Direction
1 56 33 350 15 135 150 114 320 281 309 29 22 71 36 31 45 38 31 23 14 8 354 2 7 10 19 13 333 306 226 190 200 204 202 202 201 192 187 183 184 187 188 184
27 44 327 335 5 21 25 54 341 291 298 34 18 90 95 58 54 48 30 17 7 354 0 1 3 8 13 5 4 1 316 236 202 195 206 212 203 218 206 185 186 192 188 186
75 313 317 46 22 22 9 82 337 275 328 64 15 73 46 106 75 43 38 20 7 360 351 351 354 1 359 1 357 351 346 322 231 225 199 170 136 164 176 180 193 199 190 192
35 321 13 35 41 11 338 346 282 291 13 148 29 216 25 343 2 18 15 11 360 351 350 349 348 350 355 351 349 348 342 340 303 218 211 207 209 192 218 192 194 211 206 199
274 348 358 29 354 341 279 334 318 318 88 46 360 72 264 11 340 356 358 359 355 350 347 345 345 342 341 344 349 343 336 338 340 315 223 216 222 213 176 187 182 211 205 202
352 283 323 307 302 289 301 347 31 37 56 47 300 103 344 8 334 332 342 351 353 351 349 346 343 338 338 341 341 341 337 332 332 335 314 227 220 203 177 187 192 196 196 198
337 336 320 16 5 9 15 37 352 1 13 203 316 48 271 10 338 328 331 346 356 356 356 351 349 344 339 338 337 336 336 328 327 326 325 314 232 225 204 196 202 188 192 199
40 338 2 336 66 334 330 15 134 198 343 286 308 286 181 109 51 316 340 347 356 0 357 349 345 345 338 335 333 328 332 324 324 320 314 310 301 233 228 216 210 211 205 208
4 292 312 37 355 58 316 29 291 110 17 312 271 261 240 270 347 357 355 359 1 357 351 345 344 344 342 339 334 330 330 323 323 315 304 294 290 260 227 229 212 218 211 211
229 311 269 304 351 27 122 295 17 4 23 321 302 277 251 336 340 343 355 360 351 345 343 344 342 343 339 338 338 336 336 328 322 320 312 296 287 275 234 217 216 212 220 217
113 109 290 22 25 26 353 355 347 355 144 247 308 272 234 299 333 324 339 342 335 334 340 340 345 346 343 340 345 345 343 342 338 331 325 313 270 256 245 214 200 201 209 216
87 120 276 231 254 328 289 281 296 114 292 266 176 274 143 280 304 303 318 327 319 305 321 336 345 350 349 348 350 354 353 351 344 340 344 347 354 46 54 62 68 62 50 17
169 338 347 348 359 21 241 251 257 96 202 232 169 263 198 202 275 278 306 325 314 324 342 342 348 350 352 350 354 357 358 357 350 358 7 8 6 30 61 61 55 59 56 56
106 156 170 197 207 139 293 265 239 184 161 229 239 294 294 275 251 276 297 313 316 317 338 331 349 353 356 352 356 1 3 3 1 9 12 20 14 20 39 60 58 60 59 57
104 213 214 261 254 220 254 254 255 234 231 197 245 239 239 229 226 245 292 296 325 329 339 340 348 354 350 352 360 3 7 359 6 14 11 21 13 15 40 47 53 58 57 57
81 274 114 297 314 246 274 261 253 240 241 256 260 283 207 216 174 265 265 281 306 313 309 309 342 356 353 356 358 355 360 360 9 28 10 14 17 14 39 42 38 53 55 54
140 105 46 276 342 326 304 230 200 215 205 169 190 226 200 227 208 237 252 209 247 260 291 325 350 337 329 350 355 2 357 359 12 34 17 8 13 21 29 39 48 40 49 58
139 101 90 287 347 9 248 265 216 200 226 214 218 192 206 220 228 227 226 213 227 251 327 345 339 341 343 335 354 353 16 8 19 23 21 15 23 26 28 35 44 34 38 48
315 115 54 22 272 293 301 208 180 180 277 200 208 204 211 167 358 281 208 193 186 159 176 203 278 347 348 345 344 5 25 22 24 18 10 12 16 25 25 33 36 24 35 47
102 82 113 34 167 220 244 203 184 184 290 189 190 196 163 129 190 260 154 164 164 162 167 156 130 39 36 353 343 38 31 28 17 4 2 1 4 24 26 23 26 16 20 49
173 204 191 181 255 282 242 149 149 79 241 167 180 162 152 184 193 185 158 165 157 174 165 132 98 81 23 349 2 41 24 33 357 347 354 4 14 16 22 26 26 22 24 40
173 156 187 133 215 287 160 83 179 233 313 186 171 173 183 166 157 165 188 171 168 169 167 170 134 78 9 15 15 53 49 352 352 2 6 15 12 12 20 21 15 21 26 34
240 191 179 186 213 235 202 201 232 234 271 237 184 178 179 169 180 180 194 189 188 181 177 168 157 192 261 37 54 63 358 1 13 43 39 26 18 9 359 31 40 38 32 38
238 177 223 64 255 230 228 245 245 233 227 239 221 188 170 180 180 193 190 191 186 176 178 163 164 215 251 181 74 122 336 353 79 63 49 40 39 15 0 8 46 52 43 43
190 131 184 267 275 297 258 233 237 222 218 247 213 194 199 178 192 184 193 192 191 184 179 180 194 201 219 182 192 186 194 145 115 104 99 68 55 39 5 360 13 56 44 54
183 180 181 223 208 177 233 216 202 203 211 210 195 200 205 193 197 179 199 195 182 190 169 194 205 209 227 195 198 183 187 134 141 142 122 100 83 59 20 19 7 29 59 63